sat.trackr.live / text

‹ back to catalog

STARLINK-37327

NORAD 68736 · 2026-082J

PAYLOAD ACTIVE UNKNOWN

§ Identity

Operator
Country
US
Launch date
2026-04-15
Launch site
AFWTR
Launch vehicle
Mass (kg)
RCS (m²)

Purposes: comms

External: N2YO · Heavens-Above · Gunter

§ Orbital elements

Epoch: 2026-05-25T04:00:03.998880Z

Period
92.44 min
Inclination
97.2852°
Eccentricity
0.0001852
Mean motion
15.57706895 rev/d
Perigee alt
393.0 km
Apogee alt
395.5 km
Semi-major
6,772.4 km
B*
-2.8893e-2
RAAN
8.8005°
Arg perigee
82.9952°
Mean anomaly
60.1516°
Rev number
588

§ Raw data

STARLINK-373271 68736U 26082J   26145.16671295 -.01891131  00000+0 -28893-1 0  99992 68736  97.2852   8.8005 0001852  82.9952  60.1516 15.57706895  5880

JSON: /api/v1/satellites/68736 · /tle

For live sub-satellite position, see the globe view (requires WebGL).

§ Visibility from observer

Set your observer location to see the next 7 days of passes ≥ 10°. The values pass through the URL so the page stays shareable.

No JS? Fill the form by hand. The geolocation button needs JavaScript.